Weather Roundup
Issued by NWS Springfield, MO

Home | Current Version | Previous Version | Text Only | Print | Product List | Glossary On
Versions: 1 2 3 4 5 6 7 8 9 10 11 12 13 14 15 16 17 18 19 20 21 22 23 24 25 26 27 28 29 30 31 32 33 34 35 36 37 38 39 40 41 42 43 44 45 46 47 48 49 50
000
NZUS99 KSGF 190307
HRRSGF

HOURLY WEATHER
NATIONAL WEATHER SERVICE SPRINGFIELD MO
1000 PM CDT FRI APR 18 2014

......SGF CWA......

CITY           SKY/WX    TMP DP  RH WIND       PRES   REMARKS
SPRINGFIELD    CLEAR     57  41  55 E6        30.18R
JOPLIN         CLEAR     59  42  53 E6        30.17R
WEST PLAINS    CLEAR     61  41  47 SE7       30.21R
ROLLA          CLEAR     56  40  55 E7        30.21R
OSAGE BEACH    CLEAR     59  37  44 E6        30.21R
BRANSON        CLEAR     59  39  47 SE3       30.20R

......SURROUNDING SGF CWA......

CITY           SKY/WX    TMP DP  RH WIND       PRES   REMARKS
CHANUTE        CLEAR     56  41  57 SE6       30.16R
PARSONS        CLEAR     50  38  63 CALM      30.17R
COFFEYVILLE    CLEAR     58  41  53 SE3       30.15R
EMPORIA        CLEAR     55  40  56 SE8       30.14R
GROVE OK       CLEAR     55  46  71 CALM      30.17R
ROGERS AR      CLEAR     63  40  42 E6        30.20R
SILOAM SPRINGS MOCLDY    61  39  44 S7        30.20R
HARRISON AR    CLEAR     59  39  47 CALM      30.19R
NEAR YELLVILLE CLEAR     63  37  39 CALM      30.20R

......KANSAS AND MISSOURI......

CITY           SKY/WX    TMP DP  RH WIND       PRES   REMARKS
KANSAS CTY INT PTCLDY    54  40  59 SE8       30.17R
DOWNTOWN KC    PTCLDY    62  42  47 SE8       30.16R
COLUMBIA       CLEAR     56  42  59 E8        30.21R
SEDALIA        CLEAR     59  43  55 E5        30.20R
ST JOSEPH      PTCLDY    55  40  56 SE6       30.16R
ST LOUIS       CLEAR     60  41  49 E6        30.25R
SPIRIT OF STL  CLEAR     52  43  71 CALM      30.23R
KIRKSVILLE     CLEAR     53  35  50 E6        30.22S
WICHITA        PTCLDY    59  41  51 SE10      30.11R
TOPEKA         CLEAR     55  42  61 SE8       30.15R
OLATHE         PTCLDY    58  41  53 SE5       30.17R

......TENNESSEE......

CITY           SKY/WX    TMP DP  RH WIND       PRES   REMARKS
MEMPHIS        MOCLDY    66  51  58 E3        30.18R
NASHVILLE      CLOUDY    61  46  57 NW3       30.19S

......ARKANSAS.......

CITY           SKY/WX    TMP DP  RH WIND       PRES   REMARKS
FAYETTEVILLE   CLEAR     51  46  83 CALM      30.19R
FT SMITH       CLEAR     64  43  46 CALM      30.17R
LITTLE ROCK    CLEAR     60  48  64 CALM      30.18R

......OKLAHOMA.......

CITY           SKY/WX    TMP DP  RH WIND       PRES   REMARKS
TULSA          PTCLDY    62  44  51 S6        30.14R
PONCA CITY     CLEAR     61  39  44 SE8       30.12R
MCALESTER      PTCLDY    60  45  57 E5        30.15R
OKLAHOMA CITY  PTCLDY    57  43  59 SE8       30.13R

......IOWA............

CITY           SKY/WX    TMP DP  RH WIND       PRES   REMARKS
DES MOINES     PTCLDY    57  35  43 SE12      30.18S
QUAD CITIES    CLEAR     47  32  56 E6        30.27R

......ILLINOIS........

CITY           SKY/WX    TMP DP  RH WIND       PRES   REMARKS
QUINCY         CLEAR     57  29  34 E6        30.24R
CHICAGO        CLEAR     38  26  62 NE9       30.38R WCI  31




USA.gov is the U.S. government's official web portal to all federal, state and local government web resources and services.